Regional Weather Roundup
Issued by NWS

Home | Current Version | Previous Version | Text Only | Print | Product List | Glossary Off
Versions: 1 2 3 4 5 6 7 8 9 10 11 12 13 14 15 16 17 18 19 20 21 22 23 24 25 26 27 28 29 30 31 32 33 34 35 36 37 38 39 40 41 42 43 44 45 46 47 48 49 50

000
ASUS43 KIND 230110
RWRIN

WEATHER ROUNDUP FOR INDIANA
NATIONAL WEATHER SERVICE INDIANAPOLIS IN
900 PM EDT FRI SEP 22 2017

NOTE: "FAIR" INDICATES FEW OR NO CLOUDS BELOW 12,000 FEET WITH NO
SIGNIFICANT WEATHER AND/OR OBSTRUCTIONS TO VISIBILITY.

* - STATION DOES NOT REPORT WEATHER SUCH AS PRECIPITATION OR FOG.

+ - STATION NOT QUALITY CONTROLLED BY THE NATIONAL WEATHER SERVICE.
    USE DATA WITH CAUTION...ESPECIALLY DEWPOINT AND RELATIVE
    HUMIDITY OBSERVATIONS.

INZ001>003-010>013-019-020-230200-
NORTHWEST INDIANA

CITY           SKY/WX    TMP DP  RH WIND       PRES   REMARKS
GARY /AIRPORT/ CLEAR     75  68  78 E5        30.05R
KNOX *+        CLEAR     77  68  73 E5        30.05S
LA PORTE +     CLEAR     76  68  78 CALM      30.07R
MICHIGAN CITY+ CLEAR     73  72  94 CALM      30.05S
MONTICELLO +   CLEAR     81  67  61 CALM      30.05R
RENSSELAER +   CLEAR     79  61  53 CALM      30.05S
VALPARAISO     CLEAR     79  68  69 NE5       30.05S

$$

LMZ046-743>745-230200-
SOUTHERN LAKE MICHIGAN

STATION/POSITION TIME  TEMP    WIND        PRES    WAVE
                       AIR SEA DIR/SP/G            HT
                 (UTC) (F)     (DEG/KT/KT) (MB)    (FT)
BURNS HARBOR     0100   79      80/  6/ 10 1017.6
MICHIGAN CITY    0040   82      60/  4/  4   N/A
5NW MICH CITY    0100   76 72   80/  8/  8   N/A     0

$$

INZ004-005-014>016-021>024-230200-
NORTH CENTRAL INDIANA

CITY           SKY/WX    TMP DP  RH WIND       PRES   REMARKS
ELKHART        CLEAR     77  68  73 CALM      30.06S
GOSHEN         CLEAR     77  68  73 CALM      30.07S
LOGANSPORT +   CLEAR     72  63  73 CALM      30.06S
PERU/GRISSOM   PTCLDY    76  67  74 NE3       30.05S
SOUTH BEND     CLEAR     77  70  79 CALM      30.06S
WARSAW +       CLEAR     73  70  88 CALM      30.07S

$$

INZ006>009-017-018-025>027-230200-
NORTHEAST INDIANA

CITY           SKY/WX    TMP DP  RH WIND       PRES   REMARKS
AUBURN +       CLEAR     77  68  73 NE3       30.08S
FORT WAYNE     PTCLDY    76  69  79 CALM      30.07S
HUNTINGTON +   CLEAR     76  70  82 CALM      30.06S
KENDALLVILLE + CLEAR     77  67  71 E3        30.09S

$$

INZ028-029-035-036-043>045-051>053-230200-
WEST CENTRAL INDIANA

CITY           SKY/WX    TMP DP  RH WIND       PRES   REMARKS
GREENCASTLE +  CLOUDY    75  64  69 CALM      30.06S
LAFAYETTE      CLEAR     75  70  84 CALM      30.05R
TERRE HAUTE    PTCLDY    77  67  71 E8        30.04R

$$

INZ030>032-037>040-046>048-054>057-064-065-230200-
CENTRAL INDIANA

CITY           SKY/WX    TMP DP  RH WIND       PRES   REMARKS
CP ATTERBURY + PTCLDY    73  68  83 CALM      30.06R
COLUMBUS       CLEAR     77  66  69 E3        30.05R
FRANKFORT +    MOCLDY    75  68  79 CALM      30.08S
GREENWOOD *+   PTCLDY    78  74  87 CALM      30.06R
INDIANAPOLIS   PTCLDY    81  66  60 NE3       30.05S
-EAGLE CREEK   CLEAR     77  67  71 CALM      30.05S
KOKOMO +       PTCLDY    76  69  79 CALM      30.07S
MT COMFORT *+  PTCLDY    73  68  83 CALM      30.07R
SHELBYVILLE    PTCLDY    74  67  78 CALM      30.05R
ZIONSVILLE +     N/A     71  69  92 CALM      30.08R

$$

INZ033-034-041-042-049-050-058-059-230200-
EAST CENTRAL INDIANA

CITY           SKY/WX    TMP DP  RH WIND       PRES   REMARKS
MUNCIE         PTCLDY    73  69  87 CALM      30.07R
RICHMOND +     CLEAR     72  68  88 CALM      30.09R

$$

INZ060-061-067>069-081>083-085>088-230200-
SOUTHWEST INDIANA

CITY           SKY/WX    TMP DP  RH WIND       PRES   REMARKS
EVANSVILLE     CLEAR     80  66  62 CALM      30.02R
HUNTINGBURG +  LGT RAIN  77  70  79 CALM      30.04R
WASHINGTON +   PTCLDY    75  67  76 CALM      30.03R

$$

INZ062-063-066-070>080-084-089>092-230200-
SOUTH CENTRAL AND SOUTHEAST INDIANA

CITY           SKY/WX    TMP DP  RH WIND       PRES   REMARKS
BEDFORD +      CLEAR     75  66  73 E3        30.04
BLOOMINGTON    PTCLDY    76  67  73 NW3       30.06R
MADISON *+     CLEAR     72  68  88 CALM      30.08R
NORTH VERNON + CLEAR     70  68  94 CALM      30.07R
SEYMOUR +      CLEAR     75  68  78 CALM      30.05R

$$





USA.gov is the U.S. government's official web portal to all federal, state and local government web resources and services.